Date,TemperatureHighF,TemperatureAvgF,TemperatureLowF,DewpointHighF,DewpointAvgF,DewpointLowF,HumidityHigh,HumidityAvg,HumidityLow,PressureMaxIn,PressureMinIn,WindSpeedMaxMPH,WindSpeedAvgMPH,GustSpeedMaxMPH,PrecipitationSumIn
2013-5-1,72,60,45,53,42,34,96,59,27,30.41,30.29,0,0,0,0.01
2013-5-2,72,57,39,49,44,38,96,66,36,30.43,30.31,1,0,1,0.00
2013-5-3,71,56,42,48,44,40,95,68,39,30.39,30.26,7,3,10,0.00
2013-5-4,70,56,38,49,42,36,97,65,35,30.33,30.16,8,2,12,0.00
2013-5-5,67,54,42,46,42,39,90,66,39,30.24,30.12,6,2,9,0.00
2013-5-6,63,54,40,56,49,38,95,85,76,30.19,30.07,6,2,12,0.01
2013-5-7,62,59,57,60,57,55,96,93,87,30.08,29.95,6,2,11,0.69
2013-5-8,70,61,54,59,56,52,98,86,59,30.00,29.91,4,0,6,0.14
2013-5-9,75,61,50,61,56,48,97,84,58,30.00,29.91,4,1,7,0.00
2013-5-10,84,69,50,65,59,50,98,76,41,30.01,29.84,6,2,12,0.95
2013-5-11,74,64,57,67,61,53,98,89,61,29.85,29.72,4,1,7,0.17
2013-5-12,61,56,46,54,38,28,86,54,32,30.03,29.76,6,3,11,0.00
2013-5-13,58,48,37,34,31,26,84,55,30,30.18,30.02,6,1,9,0.00
2013-5-14,62,48,30,45,36,28,96,67,35,30.24,30.04,4,1,7,0.00
2013-5-15,84,65,47,67,54,44,91,69,53,30.04,29.66,6,1,8,0.00
2013-5-16,81,71,64,66,61,54,92,72,42,29.93,29.73,6,2,8,0.07
2013-5-17,83,68,51,62,56,50,97,68,45,30.12,29.93,3,1,6,0.00
2013-5-18,68,64,58,59,55,49,92,73,51,30.21,30.11,4,2,8,0.00
2013-5-19,71,64,58,65,61,56,94,89,80,30.20,30.07,4,1,6,0.00
2013-5-20,83,73,62,70,66,61,97,80,59,30.10,29.95,4,1,7,0.00
2013-5-21,89,76,64,72,68,62,96,78,54,29.98,29.83,5,2,8,0.00
2013-5-22,91,77,65,72,67,63,97,75,45,29.92,29.78,7,2,9,0.22
2013-5-23,79,69,63,69,65,61,97,88,68,29.87,29.71,4,1,8,0.13
2013-5-24,64,54,45,63,46,34,97,75,55,30.19,29.74,5,2,16,0.02
2013-5-25,66,53,40,41,37,34,82,55,35,30.21,30.09,6,3,13,0.00
2013-5-26,71,57,39,43,39,35,90,55,31,30.23,30.13,5,2,18,0.00
2013-5-27,68,57,39,52,45,38,96,68,39,30.30,30.18,4,1,7,0.00
2013-5-28,79,64,54,67,58,51,94,83,63,30.20,30.04,3,0,6,0.05
2013-5-29,90,74,56,68,63,56,98,73,42,30.10,30.04,6,2,9,0.00
2013-5-30,93,78,61,71,66,60,97,70,39,30.18,30.07,3,1,6,0.00
2013-5-31,91,80,66,68,65,59,92,63,35,30.13,29.99,5,2,9,0.00